Skip Page Navigation
NASA JPL Caltech
NASA Logo - Jet Propulsion Laboratory + View the NASA Portal
+ Center for Near-Earth Object Studies
JPL Home Earth Solar System Stars & Galaxies Technology
JPL Solar System Dynamics
BODIES ORBITS EPHEMERIDES TOOLS PHYSICAL DATA DISCOVERY FAQ SITE MAP
JPL Small-Body Database Browser
Search: [ help ]  
4079 Britten (1983 CS)
Classification: Main-belt Asteroid          SPK-ID: 2004079
Ephemeris | Orbit Diagram | Orbital Elements | Mission Design | Physical Parameters | Discovery Circumstances | Close-Approach Data ]

[ show orbit diagram ]
Orbital Elements at Epoch 2459200.5 (2020-Dec-17.0) TDB
Reference: JPL 38 (heliocentric ecliptic J2000)
 Element Value Uncertainty (1-sigma)   Units 
e .1161399849681766 1.8949e-08  
a 3.182139210516647 1.5594e-08 au
q 2.812565610440599 6.6992e-08 au
i 2.387113061696955 6.0035e-07 deg
node 74.24338824566769 2.4748e-05 deg
peri 66.63144902381745 2.335e-05 deg
M 217.9186764253241 1.3233e-05 deg
tp 2460018.798363778641
(2023-Mar-15.29836378)
7.9719e-05 TDB
period 2073.371809529067
5.68
1.5241e-05
4.173e-08
d
yr
n .1736302183455307 1.2763e-09 deg/d
Q 3.551712810592696 1.7405e-08 au
  Orbit Determination Parameters
   # obs. used (total)      2321  
   data-arc span      16566 days (45.36 yr)  
   first obs. used      1975-09-30  
   last obs. used      2021-02-06  
   planetary ephem.      DE441  
   SB-pert. ephem.      SB441-N16  
   condition code      0  
   norm. resid. RMS      .47298  
   source      ORB  
   producer      Otto Matic  
   solution date      2021-Apr-12 15:55:09  

Additional Information
 Earth MOID = 1.82657 au 
 Jupiter MOID = 1.46661 au 
 T_jup = 3.187 
[ show covariance matrix ]

Ephemeris | Orbit Diagram | Orbital Elements | Mission Design | Physical Parameters | Discovery Circumstances | Close-Approach Data ]

Physical Parameter Table
Parameter Symbol Value Units Sigma Reference Notes
absolute magnitude H 12.76   n/a MPCxxxxx  
diameter diameter 16.397 km 0.940 urn:nasa:pds:neowise_diameters_albedos::2.0[mainbelt] (http://adsabs.harvard.edu/abs/2012ApJ...759L...8M)  
geometric albedo albedo 0.060   0.010 urn:nasa:pds:neowise_diameters_albedos::2.0[mainbelt] (http://adsabs.harvard.edu/abs/2012ApJ...759L...8M)  

4079 Britten (1983 CS)          Discovered 1983-Feb-15 by Bowell, E. at Flagstaff
Reference: DISCOVERY.DBLast Updated: 2003-08-29

[ show close-approach data ]
Alternate Designations
 1983 CS = 1978 GY1 = 1981 UW14 = 1984 HX1 
Ephemeris | Orbit Diagram | Orbital Elements | Mission Design | Physical Parameters | Discovery Circumstances | Close-Approach Data ]
ABOUT SSD CREDITS/AWARDS PRIVACY/COPYRIGHT GLOSSARY LINKS
FirstGov 2021-Jun-12 12:07 UT
(server date/time)  
NASA Home Page
Site Manager:   Ryan S. Park
Webmaster  Alan B. Chamberlin